contact:dominique.lefevre@mio.osupytheas.fr, maurice.libes@osupytheas.fr, didier.mallarino@osupytheas.fr
Project:EMSO http://www.emso-fr.org/EMSO-France
Depth: 2436.0 m
Title:EMSO Ligure Ouest : Data MII capteur CSTAR
DateTime,Latitude,Longitude,Instrument_Serial,Reference_Counts,Signal_Counts,Corrected_Signal_raw_counts,Calculated_Beam_c_inverse_meters,Internal_thermistor_counts
DateTime,Latitude,Longitude,Instrument_Serial,Reference_Counts,Signal_Counts,Corrected_Signal_raw_counts,Calculated_Beam_c_inverse_meters,Internal_thermistor_counts
2019-09-26T00:00:42,42.805,6.029,CST-1368DR,7790,10908,15363,0.065,551
2019-09-26T00:03:43,42.805,6.029,CST-1368DR,7790,10909,15364,0.065,551
2019-09-26T00:06:45,42.805,6.029,CST-1368DR,7790,10909,15364,0.065,551
2019-09-26T00:09:46,42.805,6.029,CST-1368DR,7790,10908,15363,0.065,551
2019-09-26T00:12:48,42.805,6.029,CST-1368DR,7790,10907,15361,0.066,551
2019-09-26T00:15:50,42.805,6.029,CST-1368DR,7790,10909,15364,0.065,551
2019-09-26T00:18:51,42.805,6.029,CST-1368DR,7790,10909,15364,0.065,551
2019-09-26T00:21:53,42.805,6.029,CST-1368DR,7790,10908,15363,0.065,551
2019-09-26T00:24:55,42.805,6.029,CST-1368DR,7790,10909,15364,0.065,550
2019-09-26T00:27:56,42.805,6.029,CST-1368DR,7790,10909,15363,0.065,551
2019-09-26T00:30:58,42.805,6.029,CST-1368DR,7790,10908,15362,0.066,551
2019-09-26T00:33:59,42.805,6.029,CST-1368DR,7790,10907,15361,0.066,551
2019-09-26T00:37:01,42.805,6.029,CST-1368DR,7790,10907,15361,0.066,551
2019-09-26T00:40:03,42.805,6.029,CST-1368DR,7790,10908,15362,0.066,551
2019-09-26T00:43:04,42.805,6.029,CST-1368DR,7789,10907,15362,0.066,551
2019-09-26T00:46:06,42.805,6.029,CST-1368DR,7789,10908,15364,0.065,551
2019-09-26T00:49:08,42.805,6.029,CST-1368DR,7789,10908,15364,0.065,551
2019-09-26T00:52:09,42.805,6.029,CST-1368DR,7789,10906,15362,0.066,551
2019-09-26T00:55:11,42.805,6.029,CST-1368DR,7789,10908,15364,0.065,551
2019-09-26T00:58:12,42.805,6.029,CST-1368DR,7789,10907,15363,0.065,551
2019-09-26T01:01:14,42.805,6.029,CST-1368DR,7789,10908,15364,0.065,550
2019-09-26T01:04:16,42.805,6.029,CST-1368DR,7789,10907,15363,0.065,551
2019-09-26T01:07:17,42.805,6.029,CST-1368DR,7789,10907,15363,0.065,551
2019-09-26T01:10:19,42.805,6.029,CST-1368DR,7789,10908,15364,0.065,551
2019-09-26T01:13:21,42.805,6.029,CST-1368DR,7789,10906,15361,0.066,551
2019-09-26T01:16:22,42.805,6.029,CST-1368DR,7789,10906,15361,0.066,551
2019-09-26T01:19:24,42.805,6.029,CST-1368DR,7789,10907,15362,0.066,551
2019-09-26T01:22:25,42.805,6.029,CST-1368DR,7789,10907,15362,0.066,550
2019-09-26T01:25:27,42.805,6.029,CST-1368DR,7789,10906,15362,0.066,551
2019-09-26T01:28:29,42.805,6.029,CST-1368DR,7789,10908,15364,0.065,551
2019-09-26T01:31:31,42.805,6.029,CST-1368DR,7788,10906,15364,0.065,550
2019-09-26T01:34:33,42.805,6.029,CST-1368DR,7788,10905,15362,0.066,551
2019-09-26T01:37:34,42.805,6.029,CST-1368DR,7788,10906,15364,0.065,551
2019-09-26T01:40:36,42.805,6.029,CST-1368DR,7788,10905,15362,0.066,551
2019-09-26T01:43:38,42.805,6.029,CST-1368DR,7788,10905,15362,0.066,551
2019-09-26T01:46:39,42.805,6.029,CST-1368DR,7788,10906,15363,0.065,551
2019-09-26T01:49:41,42.805,6.029,CST-1368DR,7788,10904,15360,0.066,551
2019-09-26T01:52:43,42.805,6.029,CST-1368DR,7788,10904,15361,0.066,551
2019-09-26T01:55:44,42.805,6.029,CST-1368DR,7788,10902,15357,0.067,551
2019-09-26T01:58:46,42.805,6.029,CST-1368DR,7788,10905,15362,0.066,551
2019-09-26T02:01:48,42.805,6.029,CST-1368DR,7788,10905,15362,0.066,550
2019-09-26T02:04:49,42.805,6.029,CST-1368DR,7788,10905,15362,0.066,551
2019-09-26T02:07:51,42.805,6.029,CST-1368DR,7788,10906,15363,0.065,551
2019-09-26T02:10:52,42.805,6.029,CST-1368DR,7788,10905,15362,0.066,551
2019-09-26T02:13:54,42.805,6.029,CST-1368DR,7788,10905,15362,0.066,551
2019-09-26T02:16:56,42.805,6.029,CST-1368DR,7788,10902,15357,0.067,551
2019-09-26T02:19:57,42.805,6.029,CST-1368DR,7788,10906,15363,0.065,551
2019-09-26T02:22:59,42.805,6.029,CST-1368DR,7787,10906,15364,0.065,551
2019-09-26T02:26:01,42.805,6.029,CST-1368DR,7787,10905,15363,0.065,551
2019-09-26T02:29:02,42.805,6.029,CST-1368DR,7787,10905,15363,0.065,550
2019-09-26T02:32:04,42.805,6.029,CST-1368DR,7787,10905,15363,0.065,551
2019-09-26T02:35:06,42.805,6.029,CST-1368DR,7787,10905,15364,0.065,551
2019-09-26T02:38:07,42.805,6.029,CST-1368DR,7787,10905,15363,0.065,551
2019-09-26T02:41:09,42.805,6.029,CST-1368DR,7787,10905,15363,0.065,551
2019-09-26T02:44:11,42.805,6.029,CST-1368DR,7787,10906,15364,0.065,551
2019-09-26T02:47:12,42.805,6.029,CST-1368DR,7787,10905,15363,0.065,551
2019-09-26T02:50:14,42.805,6.029,CST-1368DR,7787,10904,15363,0.065,550
2019-09-26T02:53:16,42.805,6.029,CST-1368DR,7787,10905,15363,0.065,551
2019-09-26T02:56:17,42.805,6.029,CST-1368DR,7787,10905,15363,0.065,551
2019-09-26T02:59:19,42.805,6.029,CST-1368DR,7787,10904,15362,0.066,550
2019-09-26T03:02:21,42.805,6.029,CST-1368DR,7787,10905,15363,0.065,551
2019-09-26T03:05:22,42.805,6.029,CST-1368DR,7787,10904,15362,0.066,551
2019-09-26T03:08:24,42.805,6.029,CST-1368DR,7787,10904,15362,0.066,551
2019-09-26T03:11:26,42.805,6.029,CST-1368DR,7786,10902,15361,0.066,551
2019-09-26T03:14:27,42.805,6.029,CST-1368DR,7786,10903,15362,0.066,551
2019-09-26T03:17:29,42.805,6.029,CST-1368DR,7786,10904,15363,0.065,551
2019-09-26T03:20:31,42.805,6.029,CST-1368DR,7786,10904,15364,0.065,551
2019-09-26T03:23:32,42.805,6.029,CST-1368DR,7786,10903,15363,0.065,551
2019-09-26T03:26:34,42.805,6.029,CST-1368DR,7786,10904,15363,0.065,551
2019-09-26T03:29:36,42.805,6.029,CST-1368DR,7786,10903,15363,0.065,551
2019-09-26T03:32:37,42.805,6.029,CST-1368DR,7786,10902,15361,0.066,551
2019-09-26T03:35:39,42.805,6.029,CST-1368DR,7786,10901,15360,0.066,550
2019-09-26T03:38:40,42.805,6.029,CST-1368DR,7786,10904,15364,0.065,551
2019-09-26T03:41:42,42.805,6.029,CST-1368DR,7786,10903,15362,0.066,551
2019-09-26T03:44:44,42.805,6.029,CST-1368DR,7786,10902,15361,0.066,550
2019-09-26T03:47:46,42.805,6.029,CST-1368DR,7786,10900,15359,0.066,551
2019-09-26T03:50:47,42.805,6.029,CST-1368DR,7786,10902,15361,0.066,551
2019-09-26T03:53:49,42.805,6.029,CST-1368DR,7786,10902,15361,0.066,551
2019-09-26T03:56:51,42.805,6.029,CST-1368DR,7786,10902,15361,0.066,551
2019-09-26T03:59:52,42.805,6.029,CST-1368DR,7786,10902,15362,0.066,551
2019-09-26T04:02:54,42.805,6.029,CST-1368DR,7786,10903,15362,0.066,551
2019-09-26T04:05:55,42.805,6.029,CST-1368DR,7785,10902,15363,0.065,551
2019-09-26T04:08:57,42.805,6.029,CST-1368DR,7785,10900,15361,0.066,551
2019-09-26T04:11:59,42.805,6.029,CST-1368DR,7785,10901,15361,0.066,551
2019-09-26T04:15:01,42.805,6.029,CST-1368DR,7785,10900,15360,0.066,551
2019-09-26T04:18:02,42.805,6.029,CST-1368DR,7785,10900,15360,0.066,551
2019-09-26T04:21:04,42.805,6.029,CST-1368DR,7785,10901,15362,0.066,551
2019-09-26T04:24:05,42.805,6.029,CST-1368DR,7785,10902,15363,0.065,551
2019-09-26T04:27:07,42.805,6.029,CST-1368DR,7785,10902,15362,0.066,551
2019-09-26T04:30:09,42.805,6.029,CST-1368DR,7785,10902,15364,0.065,551
2019-09-26T04:33:10,42.805,6.029,CST-1368DR,7785,10901,15361,0.066,551
2019-09-26T04:36:12,42.805,6.029,CST-1368DR,7785,10900,15360,0.066,551
2019-09-26T04:39:14,42.805,6.029,CST-1368DR,7785,10899,15359,0.066,551
2019-09-26T04:42:15,42.805,6.029,CST-1368DR,7785,10899,15359,0.066,551
2019-09-26T04:45:17,42.805,6.029,CST-1368DR,7785,10899,15359,0.066,551
2019-09-26T04:48:18,42.805,6.029,CST-1368DR,7785,10900,15360,0.066,551
2019-09-26T04:51:20,42.805,6.029,CST-1368DR,7785,10899,15358,0.067,551
2019-09-26T04:54:22,42.805,6.029,CST-1368DR,7785,10900,15361,0.066,551
2019-09-26T04:57:23,42.805,6.029,CST-1368DR,7785,10901,15362,0.066,551
2019-09-26T05:00:25,42.805,6.029,CST-1368DR,7785,10899,15359,0.066,551
2019-09-26T05:03:27,42.805,6.029,CST-1368DR,7784,10900,15361,0.066,551
2019-09-26T05:06:28,42.805,6.029,CST-1368DR,7784,10902,15364,0.065,551
2019-09-26T05:09:30,42.805,6.029,CST-1368DR,7784,10899,15360,0.066,551
2019-09-26T05:12:31,42.805,6.029,CST-1368DR,7784,10900,15362,0.066,551
2019-09-26T05:15:33,42.805,6.029,CST-1368DR,7784,10899,15361,0.066,551
2019-09-26T05:18:35,42.805,6.029,CST-1368DR,7784,10900,15362,0.066,551
2019-09-26T05:21:36,42.805,6.029,CST-1368DR,7784,10900,15361,0.066,551
2019-09-26T05:24:38,42.805,6.029,CST-1368DR,7784,10899,15361,0.066,551
2019-09-26T05:27:40,42.805,6.029,CST-1368DR,7784,10900,15362,0.066,550
2019-09-26T05:30:41,42.805,6.029,CST-1368DR,7784,10898,15359,0.066,551
2019-09-26T05:33:43,42.805,6.029,CST-1368DR,7784,10899,15360,0.066,550
2019-09-26T05:36:45,42.805,6.029,CST-1368DR,7784,10899,15361,0.066,551
2019-09-26T05:39:46,42.805,6.029,CST-1368DR,7784,10897,15358,0.067,551
2019-09-26T05:42:48,42.805,6.029,CST-1368DR,7784,10899,15361,0.066,551
2019-09-26T05:45:50,42.805,6.029,CST-1368DR,7784,10895,15355,0.067,551
2019-09-26T05:48:51,42.805,6.029,CST-1368DR,7784,10899,15361,0.066,551
2019-09-26T05:51:53,42.805,6.029,CST-1368DR,7784,10899,15361,0.066,551
2019-09-26T05:54:54,42.805,6.029,CST-1368DR,7784,10898,15359,0.066,551
2019-09-26T05:57:56,42.805,6.029,CST-1368DR,7784,10898,15360,0.066,550
2019-09-26T06:00:58,42.805,6.029,CST-1368DR,7784,10898,15360,0.066,551
2019-09-26T06:03:59,42.805,6.029,CST-1368DR,7784,10899,15360,0.066,551
2019-09-26T06:07:01,42.805,6.029,CST-1368DR,7784,10899,15360,0.066,550
2019-09-26T06:10:03,42.805,6.029,CST-1368DR,7783,10898,15360,0.066,551
2019-09-26T06:13:04,42.805,6.029,CST-1368DR,7783,10899,15363,0.065,551
2019-09-26T06:16:06,42.805,6.029,CST-1368DR,7783,10896,15358,0.067,551
2019-09-26T06:19:08,42.805,6.029,CST-1368DR,7783,10896,15359,0.066,551
2019-09-26T06:22:09,42.805,6.029,CST-1368DR,7783,10897,15360,0.066,551
2019-09-26T06:25:11,42.805,6.029,CST-1368DR,7783,10896,15358,0.067,551
2019-09-26T06:28:12,42.805,6.029,CST-1368DR,7783,10898,15360,0.066,551
2019-09-26T06:31:14,42.805,6.029,CST-1368DR,7783,10898,15362,0.066,551
2019-09-26T06:34:16,42.805,6.029,CST-1368DR,7783,10899,15362,0.066,551
2019-09-26T06:37:17,42.805,6.029,CST-1368DR,7783,10898,15361,0.066,551
2019-09-26T06:40:19,42.805,6.029,CST-1368DR,7783,10898,15361,0.066,551
2019-09-26T06:43:21,42.805,6.029,CST-1368DR,7783,10897,15360,0.066,551
2019-09-26T06:46:22,42.805,6.029,CST-1368DR,7783,10896,15359,0.066,551
2019-09-26T06:49:24,42.805,6.029,CST-1368DR,7783,10897,15359,0.066,551
2019-09-26T06:52:25,42.805,6.029,CST-1368DR,7783,10886,15344,0.070,551
2019-09-26T06:55:27,42.805,6.029,CST-1368DR,7783,10896,15359,0.066,551
2019-09-26T06:58:29,42.805,6.029,CST-1368DR,7783,10897,15359,0.066,551
2019-09-26T07:01:31,42.805,6.029,CST-1368DR,7783,10895,15356,0.067,551
2019-09-26T07:04:33,42.805,6.029,CST-1368DR,7782,10896,15360,0.066,551
2019-09-26T07:07:34,42.805,6.029,CST-1368DR,7782,10896,15360,0.066,551
2019-09-26T07:10:36,42.805,6.029,CST-1368DR,7782,10897,15361,0.066,550
2019-09-26T07:13:37,42.805,6.029,CST-1368DR,7782,10893,15356,0.067,551
2019-09-26T07:16:39,42.805,6.029,CST-1368DR,7782,10897,15362,0.066,551
2019-09-26T07:19:41,42.805,6.029,CST-1368DR,7782,10897,15361,0.066,551
2019-09-26T07:22:42,42.805,6.029,CST-1368DR,7782,10896,15360,0.066,551
2019-09-26T07:25:44,42.805,6.029,CST-1368DR,7782,10896,15360,0.066,551
2019-09-26T07:28:46,42.805,6.029,CST-1368DR,7782,10896,15360,0.066,551
2019-09-26T07:31:47,42.805,6.029,CST-1368DR,7782,10895,15358,0.067,551
2019-09-26T07:34:49,42.805,6.029,CST-1368DR,7782,10895,15358,0.067,551
2019-09-26T07:37:51,42.805,6.029,CST-1368DR,7782,10895,15358,0.067,550
2019-09-26T07:40:52,42.805,6.029,CST-1368DR,7782,10895,15358,0.067,551
2019-09-26T07:43:54,42.805,6.029,CST-1368DR,7782,10896,15359,0.066,551
2019-09-26T07:46:55,42.805,6.029,CST-1368DR,7782,10896,15361,0.066,551
2019-09-26T07:49:57,42.805,6.029,CST-1368DR,7782,10895,15359,0.066,551
2019-09-26T07:52:59,42.805,6.029,CST-1368DR,7782,10895,15359,0.066,551
2019-09-26T07:56:00,42.805,6.029,CST-1368DR,7782,10894,15357,0.067,551
2019-09-26T07:59:02,42.805,6.029,CST-1368DR,7782,10895,15358,0.067,550
2019-09-26T08:02:04,42.805,6.029,CST-1368DR,7782,10896,15360,0.066,551
2019-09-26T08:05:05,42.805,6.029,CST-1368DR,7782,10896,15359,0.066,551
2019-09-26T08:08:07,42.805,6.029,CST-1368DR,7781,10896,15361,0.066,551
2019-09-26T08:11:08,42.805,6.029,CST-1368DR,7781,10894,15360,0.066,551
2019-09-26T08:14:10,42.805,6.029,CST-1368DR,7781,10893,15358,0.067,551
2019-09-26T08:17:12,42.805,6.029,CST-1368DR,7781,10893,15357,0.067,551
2019-09-26T08:20:13,42.805,6.029,CST-1368DR,7781,10893,15358,0.067,551
2019-09-26T08:23:15,42.805,6.029,CST-1368DR,7781,10892,15356,0.067,551
2019-09-26T08:26:17,42.805,6.029,CST-1368DR,7781,10895,15360,0.066,551
2019-09-26T08:29:18,42.805,6.029,CST-1368DR,7781,10893,15358,0.067,551
2019-09-26T08:32:20,42.805,6.029,CST-1368DR,7781,10893,15358,0.067,551
2019-09-26T08:35:21,42.805,6.029,CST-1368DR,7781,10895,15360,0.066,551
2019-09-26T08:38:23,42.805,6.029,CST-1368DR,7781,10893,15357,0.067,551
2019-09-26T08:41:25,42.805,6.029,CST-1368DR,7781,10895,15361,0.066,551
2019-09-26T08:44:26,42.805,6.029,CST-1368DR,7781,10894,15359,0.066,551
2019-09-26T08:47:28,42.805,6.029,CST-1368DR,7781,10894,15359,0.066,551
2019-09-26T08:50:30,42.805,6.029,CST-1368DR,7781,10895,15360,0.066,551
2019-09-26T08:53:31,42.805,6.029,CST-1368DR,7781,10895,15360,0.066,551
2019-09-26T08:56:33,42.805,6.029,CST-1368DR,7781,10893,15358,0.067,551
2019-09-26T08:59:35,42.805,6.029,CST-1368DR,7781,10892,15356,0.067,551
2019-09-26T09:02:36,42.805,6.029,CST-1368DR,7780,10893,15360,0.066,550
2019-09-26T09:05:38,42.805,6.029,CST-1368DR,7780,10893,15359,0.066,551
2019-09-26T09:08:40,42.805,6.029,CST-1368DR,7780,10890,15356,0.067,551
2019-09-26T09:11:41,42.805,6.029,CST-1368DR,7780,10892,15358,0.067,551
2019-09-26T09:14:43,42.805,6.029,CST-1368DR,7780,10892,15358,0.067,551
2019-09-26T09:17:44,42.805,6.029,CST-1368DR,7780,10893,15359,0.066,550
2019-09-26T09:20:46,42.805,6.029,CST-1368DR,7780,10893,15359,0.066,551
2019-09-26T09:23:48,42.805,6.029,CST-1368DR,7780,10893,15359,0.066,551
2019-09-26T09:26:49,42.805,6.029,CST-1368DR,7780,10893,15359,0.066,551
2019-09-26T09:29:51,42.805,6.029,CST-1368DR,7780,10892,15358,0.067,551
2019-09-26T09:32:53,42.805,6.029,CST-1368DR,7780,10892,15358,0.067,551
2019-09-26T09:35:54,42.805,6.029,CST-1368DR,7780,10893,15359,0.066,551
2019-09-26T09:38:56,42.805,6.029,CST-1368DR,7780,10891,15356,0.067,551
2019-09-26T09:41:58,42.805,6.029,CST-1368DR,7780,10892,15358,0.067,551
2019-09-26T09:44:59,42.805,6.029,CST-1368DR,7780,10891,15357,0.067,550
2019-09-26T09:48:01,42.805,6.029,CST-1368DR,7780,10891,15357,0.067,551
2019-09-26T09:51:02,42.805,6.029,CST-1368DR,7780,10893,15360,0.066,551
2019-09-26T09:54:04,42.805,6.029,CST-1368DR,7780,10892,15358,0.067,551
2019-09-26T09:57:06,42.805,6.029,CST-1368DR,7780,10891,15356,0.067,551
2019-09-26T10:00:07,42.805,6.029,CST-1368DR,7779,10891,15358,0.067,551
2019-09-26T10:03:09,42.805,6.029,CST-1368DR,7779,10891,15359,0.066,551
2019-09-26T10:06:11,42.805,6.029,CST-1368DR,7779,10892,15360,0.066,551
2019-09-26T10:09:12,42.805,6.029,CST-1368DR,7779,10892,15359,0.066,551
2019-09-26T10:12:14,42.805,6.029,CST-1368DR,7779,10891,15359,0.066,551
2019-09-26T10:15:15,42.805,6.029,CST-1368DR,7779,10892,15360,0.066,551
2019-09-26T10:18:17,42.805,6.029,CST-1368DR,7779,10892,15359,0.066,551
2019-09-26T10:21:19,42.805,6.029,CST-1368DR,7779,10891,15359,0.066,551
2019-09-26T10:24:20,42.805,6.029,CST-1368DR,7779,10891,15358,0.067,551
2019-09-26T10:27:22,42.805,6.029,CST-1368DR,7779,10891,15359,0.066,551
2019-09-26T10:30:24,42.805,6.029,CST-1368DR,7779,10891,15358,0.067,551
2019-09-26T10:33:25,42.805,6.029,CST-1368DR,7779,10891,15359,0.066,551
2019-09-26T10:36:27,42.805,6.029,CST-1368DR,7779,10891,15358,0.067,551
2019-09-26T10:39:29,42.805,6.029,CST-1368DR,7779,10891,15358,0.067,551
2019-09-26T10:42:30,42.805,6.029,CST-1368DR,7779,10891,15359,0.066,551
2019-09-26T10:45:32,42.805,6.029,CST-1368DR,7779,10889,15356,0.067,551
2019-09-26T10:48:33,42.805,6.029,CST-1368DR,7779,10889,15356,0.067,551
2019-09-26T10:51:35,42.805,6.029,CST-1368DR,7779,10890,15358,0.067,551
2019-09-26T10:54:37,42.805,6.029,CST-1368DR,7779,10890,15357,0.067,551
2019-09-26T10:57:38,42.805,6.029,CST-1368DR,7778,10890,15359,0.066,550
2019-09-26T11:00:40,42.805,6.029,CST-1368DR,7778,10891,15361,0.066,551
2019-09-26T11:03:42,42.805,6.029,CST-1368DR,7778,10889,15357,0.067,551
2019-09-26T11:06:43,42.805,6.029,CST-1368DR,7778,10888,15356,0.067,551
2019-09-26T11:09:45,42.805,6.029,CST-1368DR,7778,10890,15359,0.066,551
2019-09-26T11:12:47,42.805,6.029,CST-1368DR,7778,10889,15358,0.067,551
2019-09-26T11:15:48,42.805,6.029,CST-1368DR,7778,10890,15359,0.066,551
2019-09-26T11:18:50,42.805,6.029,CST-1368DR,7778,10889,15357,0.067,551
2019-09-26T11:21:52,42.805,6.029,CST-1368DR,7778,10890,15359,0.066,551
2019-09-26T11:24:53,42.805,6.029,CST-1368DR,7778,10890,15359,0.066,551
2019-09-26T11:27:55,42.805,6.029,CST-1368DR,7778,10890,15359,0.066,551
2019-09-26T11:30:57,42.805,6.029,CST-1368DR,7778,10890,15359,0.066,551
2019-09-26T11:33:58,42.805,6.029,CST-1368DR,7778,10890,15359,0.066,551
2019-09-26T11:37:00,42.805,6.029,CST-1368DR,7778,10890,15359,0.066,551
2019-09-26T11:40:02,42.805,6.029,CST-1368DR,7778,10890,15358,0.067,551
2019-09-26T11:43:03,42.805,6.029,CST-1368DR,7778,10888,15356,0.067,551
2019-09-26T11:46:05,42.805,6.029,CST-1368DR,7778,10888,15356,0.067,551
2019-09-26T11:49:07,42.805,6.029,CST-1368DR,7778,10890,15359,0.066,551
2019-09-26T11:52:08,42.805,6.029,CST-1368DR,7778,10889,15357,0.067,551
2019-09-26T11:55:10,42.805,6.029,CST-1368DR,7777,10889,15359,0.066,551
2019-09-26T11:58:11,42.805,6.029,CST-1368DR,7777,10888,15357,0.067,551
2019-09-26T12:01:13,42.805,6.029,CST-1368DR,7777,10885,15353,0.068,551
2019-09-26T12:04:15,42.805,6.029,CST-1368DR,7777,10889,15359,0.066,551
2019-09-26T12:07:16,42.805,6.029,CST-1368DR,7777,10888,15358,0.067,551
2019-09-26T12:10:18,42.805,6.029,CST-1368DR,7777,10889,15359,0.066,551
2019-09-26T12:13:20,42.805,6.029,CST-1368DR,7777,10889,15359,0.066,551
2019-09-26T12:16:21,42.805,6.029,CST-1368DR,7777,10888,15358,0.067,551
2019-09-26T12:19:23,42.805,6.029,CST-1368DR,7777,10887,15356,0.067,551
2019-09-26T12:22:25,42.805,6.029,CST-1368DR,7777,10888,15358,0.067,550
2019-09-26T12:25:26,42.805,6.029,CST-1368DR,7777,10888,15358,0.067,551
2019-09-26T12:28:28,42.805,6.029,CST-1368DR,7777,10888,15357,0.067,551
2019-09-26T12:31:30,42.805,6.029,CST-1368DR,7777,10888,15358,0.067,551
2019-09-26T12:34:32,42.805,6.029,CST-1368DR,7777,10887,15356,0.067,551
2019-09-26T12:37:33,42.805,6.029,CST-1368DR,7777,10886,15355,0.067,551
2019-09-26T12:40:35,42.805,6.029,CST-1368DR,7777,10885,15353,0.068,551
2019-09-26T12:43:37,42.805,6.029,CST-1368DR,7777,10887,15356,0.067,551
2019-09-26T12:46:38,42.805,6.029,CST-1368DR,7777,10883,15351,0.068,551
2019-09-26T12:49:40,42.805,6.029,CST-1368DR,7777,10888,15358,0.067,551
2019-09-26T12:52:42,42.805,6.029,CST-1368DR,7777,10883,15350,0.069,551
2019-09-26T12:55:43,42.805,6.029,CST-1368DR,7777,10888,15357,0.067,551
2019-09-26T12:58:45,42.805,6.029,CST-1368DR,7777,10888,15358,0.067,551
2019-09-26T13:01:46,42.805,6.029,CST-1368DR,7776,10886,15357,0.067,551
2019-09-26T13:04:48,42.805,6.029,CST-1368DR,7776,10889,15361,0.066,551
2019-09-26T13:07:50,42.805,6.029,CST-1368DR,7776,10888,15360,0.066,551
2019-09-26T13:10:51,42.805,6.029,CST-1368DR,7776,10886,15357,0.067,551
2019-09-26T13:13:53,42.805,6.029,CST-1368DR,7776,10886,15356,0.067,551
2019-09-26T13:16:55,42.805,6.029,CST-1368DR,7776,10887,15358,0.067,551
2019-09-26T13:19:56,42.805,6.029,CST-1368DR,7776,10886,15357,0.067,551
2019-09-26T13:22:58,42.805,6.029,CST-1368DR,7776,10886,15357,0.067,550
2019-09-26T13:25:59,42.805,6.029,CST-1368DR,7776,10886,15357,0.067,551
2019-09-26T13:29:01,42.805,6.029,CST-1368DR,7776,10885,15355,0.067,551
2019-09-26T13:32:03,42.805,6.029,CST-1368DR,7776,10886,15356,0.067,551
2019-09-26T13:35:04,42.805,6.029,CST-1368DR,7776,10887,15358,0.067,551
2019-09-26T13:38:06,42.805,6.029,CST-1368DR,7776,10878,15346,0.070,550
2019-09-26T13:41:08,42.805,6.029,CST-1368DR,7776,10886,15357,0.067,551
2019-09-26T13:44:09,42.805,6.029,CST-1368DR,7776,10881,15350,0.069,551
2019-09-26T13:47:11,42.805,6.029,CST-1368DR,7776,10886,15357,0.067,551
2019-09-26T13:50:13,42.805,6.029,CST-1368DR,7776,10886,15356,0.067,550
2019-09-26T13:53:14,42.805,6.029,CST-1368DR,7776,10883,15353,0.068,551
2019-09-26T13:56:16,42.805,6.029,CST-1368DR,7776,10885,15356,0.067,551
2019-09-26T13:59:18,42.805,6.029,CST-1368DR,7776,10885,15355,0.067,551
2019-09-26T14:02:19,42.805,6.029,CST-1368DR,7775,10885,15357,0.067,550
2019-09-26T14:05:21,42.805,6.029,CST-1368DR,7775,10885,15358,0.067,551
2019-09-26T14:08:22,42.805,6.029,CST-1368DR,7775,10885,15357,0.067,551
2019-09-26T14:11:24,42.805,6.029,CST-1368DR,7775,10885,15358,0.067,551
2019-09-26T14:14:26,42.805,6.029,CST-1368DR,7775,10886,15359,0.066,551
2019-09-26T14:17:27,42.805,6.029,CST-1368DR,7775,10886,15358,0.067,551
2019-09-26T14:20:29,42.805,6.029,CST-1368DR,7775,10883,15355,0.067,551
2019-09-26T14:23:31,42.805,6.029,CST-1368DR,7775,10883,15355,0.067,551
2019-09-26T14:26:32,42.805,6.029,CST-1368DR,7775,10883,15355,0.067,551
2019-09-26T14:29:34,42.805,6.029,CST-1368DR,7775,10885,15358,0.067,551
2019-09-26T14:32:35,42.805,6.029,CST-1368DR,7775,10884,15356,0.067,551
2019-09-26T14:35:37,42.805,6.029,CST-1368DR,7775,10885,15357,0.067,551
2019-09-26T14:38:39,42.805,6.029,CST-1368DR,7775,10883,15354,0.068,551
2019-09-26T14:41:40,42.805,6.029,CST-1368DR,7775,10882,15353,0.068,551
2019-09-26T14:44:42,42.805,6.029,CST-1368DR,7775,10885,15358,0.067,551
2019-09-26T14:47:44,42.805,6.029,CST-1368DR,7775,10883,15354,0.068,551
2019-09-26T14:50:45,42.805,6.029,CST-1368DR,7775,10883,15355,0.067,551
2019-09-26T14:53:47,42.805,6.029,CST-1368DR,7774,10883,15356,0.067,551
2019-09-26T14:56:48,42.805,6.029,CST-1368DR,7774,10882,15355,0.067,551
2019-09-26T14:59:50,42.805,6.029,CST-1368DR,7774,10885,15359,0.066,551
2019-09-26T15:02:52,42.805,6.029,CST-1368DR,7774,10884,15358,0.067,551
2019-09-26T15:05:53,42.805,6.029,CST-1368DR,7774,10885,15359,0.066,551
2019-09-26T15:08:55,42.805,6.029,CST-1368DR,7774,10884,15357,0.067,551
2019-09-26T15:11:57,42.805,6.029,CST-1368DR,7774,10884,15357,0.067,551
2019-09-26T15:14:58,42.805,6.029,CST-1368DR,7774,10884,15357,0.067,551
2019-09-26T15:18:00,42.805,6.029,CST-1368DR,7774,10883,15356,0.067,551
2019-09-26T15:21:01,42.805,6.029,CST-1368DR,7774,10883,15357,0.067,550
2019-09-26T15:24:03,42.805,6.029,CST-1368DR,7774,10883,15356,0.067,550
2019-09-26T15:27:05,42.805,6.029,CST-1368DR,7774,10882,15355,0.067,551
2019-09-26T15:30:06,42.805,6.029,CST-1368DR,7774,10883,15356,0.067,550
2019-09-26T15:33:08,42.805,6.029,CST-1368DR,7774,10882,15355,0.067,551
2019-09-26T15:36:10,42.805,6.029,CST-1368DR,7774,10882,15355,0.067,551
2019-09-26T15:39:11,42.805,6.029,CST-1368DR,7774,10882,15354,0.068,550
2019-09-26T15:42:13,42.805,6.029,CST-1368DR,7774,10881,15354,0.068,551
2019-09-26T15:45:15,42.805,6.029,CST-1368DR,7774,10882,15354,0.068,551
2019-09-26T15:48:16,42.805,6.029,CST-1368DR,7774,10882,15355,0.067,551
2019-09-26T15:51:18,42.805,6.029,CST-1368DR,7774,10882,15354,0.068,550
2019-09-26T15:54:19,42.805,6.029,CST-1368DR,7774,10882,15355,0.067,551
2019-09-26T15:57:21,42.805,6.029,CST-1368DR,7773,10882,15356,0.067,551
2019-09-26T16:00:23,42.805,6.029,CST-1368DR,7773,10879,15353,0.068,551
2019-09-26T16:03:24,42.805,6.029,CST-1368DR,7773,10882,15357,0.067,551
2019-09-26T16:06:26,42.805,6.029,CST-1368DR,7773,10882,15356,0.067,551
2019-09-26T16:09:28,42.805,6.029,CST-1368DR,7773,10879,15352,0.068,551
2019-09-26T16:12:29,42.805,6.029,CST-1368DR,7773,10882,15357,0.067,551
2019-09-26T16:15:31,42.805,6.029,CST-1368DR,7773,10881,15355,0.067,551
2019-09-26T16:18:32,42.805,6.029,CST-1368DR,7773,10881,15356,0.067,551
2019-09-26T16:21:34,42.805,6.029,CST-1368DR,7773,10879,15352,0.068,551
2019-09-26T16:24:36,42.805,6.029,CST-1368DR,7773,10879,15353,0.068,550
2019-09-26T16:27:37,42.805,6.029,CST-1368DR,7773,10882,15356,0.067,550
2019-09-26T16:30:39,42.805,6.029,CST-1368DR,7773,10881,15356,0.067,551
2019-09-26T16:33:41,42.805,6.029,CST-1368DR,7773,10878,15351,0.068,551
2019-09-26T16:36:42,42.805,6.029,CST-1368DR,7773,10881,15355,0.067,551